This is the latest recevied weather packets stored in our database for station/object KM4CNW. If no packets are shown the sender has not sent any weather packets the latest 10 day(s).
| Time | Temp. | Humidity | Pressure | Rain* | Wind** | Luminosity | Snow |
|---|---|---|---|---|---|---|---|
| 1777421887 | 16.11° C | 84% | 1011.5 hPa | 0 mm | - | 0 W/m² | - |
| 1777421583 | 16.11° C | 84% | 1011.5 hPa | 0 mm | - | 1 W/m² | - |
| 1777421279 | 16.67° C | 83% | 1011.4 hPa | 0 mm | - | 1 W/m² | - |
| 1777420975 | 16.67° C | 82% | 1011 hPa | 0 mm | - | 2 W/m² | - |
| 1777420672 | 16.67° C | 80% | 1010.9 hPa | 0 mm | - | 4 W/m² | - |
| 1777420368 | 16.67° C | 80% | 1011.1 hPa | 0 mm | - | 6 W/m² | - |
| 1777420064 | 16.67° C | 79% | 1011.2 hPa | 0 mm | - | 9 W/m² | - |
| 1777419761 | 16.67° C | 80% | 1010.8 hPa | 0 mm | - | 15 W/m² | - |
| 1777419458 | 17.22° C | 79% | 1010.9 hPa | 0 mm | - | 17 W/m² | - |
| 1777419158 | 17.22° C | 77% | 1010.9 hPa | 0 mm | - | 21 W/m² | - |
| 1777418852 | 17.22° C | 78% | 1010.8 hPa | 0 mm | - | 26 W/m² | - |
| 1777418549 | 17.22° C | 77% | 1010.7 hPa | 0 mm | - | 28 W/m² | - |
| 1777418246 | 17.22° C | 77% | 1010.5 hPa | 0 mm | - | 30 W/m² | - |
| 1777417941 | 17.22° C | 76% | 1010.5 hPa | 0 mm | - | 34 W/m² | - |
| 1777417637 | 17.22° C | 75% | 1010.5 hPa | 0 mm | - | 39 W/m² | - |
| 1777417333 | 17.78° C | 75% | 1010.7 hPa | 0 mm | - | 28 W/m² | - |
| 1777417030 | 17.78° C | 75% | 1010.7 hPa | 0 mm | - | 48 W/m² | - |
| 1777416725 | 17.78° C | 75% | 1010.8 hPa | 0 mm | - | 55 W/m² | - |
| 1777416421 | 17.78° C | 75% | 1010.5 hPa | 0 mm | - | 81 W/m² | - |
| 1777416116 | 17.78° C | 75% | 1010.8 hPa | 0 mm | - | 82 W/m² | - |
| 1777415816 | 17.78° C | 74% | 1011 hPa | 0 mm | - | 66 W/m² | - |
| 1777415512 | 17.78° C | 74% | 1011.1 hPa | 0 mm | - | 55 W/m² | - |
| 1777415208 | 17.78° C | 73% | 1011.3 hPa | 0 mm | - | 62 W/m² | - |
| 1777414904 | 17.78° C | 74% | 1011.1 hPa | 0 mm | - | 73 W/m² | - |
| 1777414602 | 17.78° C | 75% | 1011.2 hPa | 0 mm | - | 73 W/m² | - |
* Rain latest hour (hover to see other rain measurements)
** Current wind speed in m/s (hover to see current wind gust speed)